Location: Stillwell
(40.4602°N, 82.0928°W)
Time: 06:32:39
(UTC-04:00)

H-2A R/B - Pass Details

Date: 25 May 2018
Orbit: 733 x 838 km, 98.3° (Epoch: 17 August)

Event Time Altitude Azimuth Distance (km) Brightness Sun altitude
Exits shadow 22:19:45 21° 158° (SSE) 1,636 3.2 -14.8°
Maximum altitude 22:23:07 77° 75° (ENE) 770 1.9 -15.3°
Drops below altitude 10° 22:28:10 10° 350° (N) 2,300 5.4 -15.9°
Sets 22:30:30 0° 349° (N) 3,246 6.3 -16.2°
